Location: Bakov nad Jizerou
(50.4784°N, 14.9394°E)
Time: 06:07:37
(UTC+00:00)

Cosmos 2237 Rocket - Pass Details

Date: 16 June 2021
Orbit: 835 x 850 km, 71.0° (Epoch: 28 July)

Event Time Altitude Azimuth Distance (km) Brightness Sun altitude
Exits shadow 23:23:41 15° 227° (SW) 2,081 3.8 -16.0°
Maximum altitude 23:28:13 59° 304° (NW) 963 2.6 -15.9°
Drops below altitude 10° 23:33:47 10° 24° (NNE) 2,458 5.8 -15.8°
Sets 23:36:17 0° 29° (NNE) 3,397 6.7 -15.7°
